Location: Newark
(51.2625°N, 13.3939°E)
Time: 02:44:06
(UTC+00:00)

Explorer 7 - Pass Details

Date: 12 November 2019
Orbit: 485 x 680 km, 50.3° (Epoch: 10 December)

Event Time Altitude Azimuth Distance (km) Brightness Sun altitude
Rises 05:12:31 0° 273° (W) 2,732 - -10.3°
Reaches altitude 10° 05:14:50 10° 272° (W) 1,804 - -10.0°
Exits shadow 05:15:17 13° 271° (W) 1,623 8.6 -9.9°
Maximum altitude 05:18:54 76° 188° (S) 540 6.8 -9.3°
Drops below altitude 10° 05:22:46 10° 102° (ESE) 1,710 11.0 -8.8°
Sets 05:24:54 0° 100° (E) 2,575 12.5 -8.4°
